,

(GMT )
Al Udeid

Weather History for KQIR - November, 2012

Change the Weather History Date:

Saturday, November 17, 2012

  Actual Average Record
Temperature  
Mean Temperature 74 °F -  
Max Temperature 82 °F - - ()
Min Temperature 65 °F - - ()
Cooling Degree Days 8    
Growing Degree Days 24 (Base 50)    
Moisture  
Dew Point 58 °F    
Average Humidity 61    
Maximum Humidity 75    
Minimum Humidity 41    
Precipitation  
Precipitation 0.00 in - - ()
Sea Level Pressure  
Sea Level Pressure 30.11 in    
Wind  
Wind Speed 9 mph ()    
Max Wind Speed 20 mph    
Max Gust Speed 22 mph    
Visibility 6.2 miles    
Events      
Averages and records for this station are not official NWS values.
T = Trace of Precipitation, MM = Missing Value Source: Averaged Metar Reports

Daily Weather History Graph

Daily Weather History Graph

Search for Another Location

Airport or City:

Trip Planner

Search our weather history database for the weather conditions in past years. The results will help you decide how hot, cold, wet, or windy it might be!

Date:

Astronomy

Nov. 17, 2012 Rise Set
Actual Time 5:53 AM +03 4:46 PM +03
Civil Twilight 5:28 AM +03 5:10 PM +03
Nautical Twilight 5:01 AM +03 5:38 PM +03
Astronomical Twilight 4:33 AM +03 6:05 PM +03
Moon 9:16 AM +03 (11/17) 8:28 PM +03 (11/17)
Length of Visible Light 11h 41m
Length of Day
10h 52m
Waxing Crescent, 17% of the Moon is Illuminated
Nov 17
Waxing Crescent
Nov 20
First Quarter
Nov 28
Full
Dec 6
Last Quarter
Dec 13
New

Hourly Weather History & Observations

Time (+03) Temp. Heat Index Dew Point Humidity Pressure Visibility Wind Dir Wind Speed Gust Speed Precip Events Conditions
12:55 AM 67.1 °F - 57.2 °F 70% 30.11 in 6.2 mi WNW 5.8 mph - N/A   Clear
1:55 AM 65.8 °F - 56.7 °F 72% 30.09 in 6.2 mi NW 8.1 mph - N/A   Clear
2:55 AM 65.8 °F - 56.5 °F 72% 30.09 in 6.2 mi NNW 8.1 mph - N/A   Clear
3:55 AM 66.4 °F - 57.6 °F 73% 30.10 in 6.2 mi NW 8.1 mph - N/A   Clear
4:55 AM 66.6 °F - 58.5 °F 75% 30.12 in 6.2 mi NW 8.1 mph - N/A   Clear
5:55 AM 66.6 °F - 58.1 °F 74% 30.13 in 6.2 mi WNW 9.2 mph - N/A   Clear
6:55 AM 68.7 °F - 58.5 °F 70% 30.14 in 6.2 mi NW 11.5 mph - N/A   Clear
7:55 AM 72.9 °F - 58.8 °F 61% 30.16 in 6.2 mi NW 12.7 mph - N/A   Clear
8:55 AM 76.5 °F - 59.0 °F 55% 30.17 in 6.2 mi NW 15.0 mph - N/A   Clear
9:55 AM 78.8 °F - 59.7 °F 52% 30.15 in 6.2 mi NW 15.0 mph - N/A   Clear
10:55 AM 80.8 °F 81.1 °F 58.5 °F 46% 30.13 in 6.2 mi NW 13.8 mph - N/A   Clear
11:55 AM 82.0 °F 81.6 °F 55.9 °F 41% 30.11 in 6.2 mi NW 15.0 mph - N/A   Clear
12:55 PM 82.4 °F 82.2 °F 57.9 °F 43% 30.09 in 6.2 mi NW 16.1 mph 21.9 mph N/A   Clear
1:55 PM 82.4 °F 82.0 °F 57.2 °F 42% 30.07 in 6.2 mi NNW 18.4 mph - N/A   Clear
2:55 PM 81.5 °F 81.4 °F 56.8 °F 43% 30.07 in 6.2 mi NNW 13.8 mph - N/A   Clear
3:55 PM 79.9 °F - 56.8 °F 45% 30.07 in 6.2 mi NW 19.6 mph - N/A   Clear
4:55 PM 77.4 °F - 58.5 °F 52% 30.08 in 6.2 mi NNW 16.1 mph - N/A   Clear
5:55 PM 75.2 °F - 58.6 °F 56% 30.10 in 6.2 mi NNW 11.5 mph - N/A   Clear
6:55 PM 73.4 °F - 59.9 °F 63% 30.11 in 6.2 mi NW 8.1 mph - N/A   Clear
7:55 PM 71.6 °F - 59.9 °F 66% 30.11 in 6.2 mi NNW 4.6 mph - N/A   Clear
8:55 PM 70.0 °F - 59.2 °F 68% 30.10 in 6.2 mi NW 5.8 mph - N/A   Clear
9:55 PM 69.1 °F - 59.2 °F 71% 30.10 in 6.2 mi NW 6.9 mph - N/A   Clear
10:55 PM 68.4 °F - 58.5 °F 71% 30.09 in 6.2 mi NW 4.6 mph - N/A   Clear
11:55 PM 67.1 °F - 57.6 °F 71% 30.07 in 6.2 mi WNW 5.8 mph - N/A   Clear